DG7AA-13 Weather Reports


Display with metric or nautical units.
time (UTC)temp
F
wind
direction
speed
MPH
gust
MPH
rain 1hr
in
rain 24hr
in
rain mn
in
humidity
%
barometer
mb
20260904152032 65 339 2.0 5.0 0.02 0.02 0.02 92
20260904151020 66 343 2.0 4.0 0.01 0.02 0.01 86
20260904150027 68 319 3.0 7.0 0.00 0.01 0.00 82
20260904145020 69 342 3.0 5.0 0.00 0.01 0.00 81
20260904144022 69 341 3.0 5.0 0.00 0.01 0.00 78
20260904143019 71 340 4.0 6.0 0.00 0.01 0.00 75
20260904142027 75 344 3.0 6.0 0.00 0.01 0.00 67
20260904141023 79 26 2.0 12.0 0.00 0.01 0.00 61
20260904140024 79 335 2.0 4.0 0.00 0.01 0.00 61
20260904135019 79 325 3.0 8.0 0.00 0.01 0.00 62
20260904134029 79 353 3.0 10.0 0.00 0.01 0.00 60
20260904133021 80 73 3.0 13.0 0.00 0.01 0.00 59
20260904132027 82 341 2.0 9.0 0.00 0.01 0.00 57
20260904131021 82 93 3.0 7.0 0.00 0.01 0.00 57
20260904130029 82 53 3.0 15.0 0.00 0.01 0.00 57
20260904125019 81 258 2.0 6.0 0.00 0.01 0.00 62
20260904124027 79 357 2.0 5.0 0.00 0.01 0.00 65
20260904123036 78 305 2.0 8.0 0.00 0.01 0.00 67
20260904122022 77 265 2.0 10.0 0.00 0.01 0.00 70
20260904121020 76 331 2.0 6.0 0.00 0.01 0.00 73
20260904120029 75 17 2.0 7.0 0.00 0.01 0.00 75
20260904115019 74 331 2.0 8.0 0.00 0.01 0.00 77
20260904114028 74 230 2.0 8.0 0.00 0.05 0.00 77
20260904113020 74 114 2.0 7.0 0.00 0.05 0.00 77
20260904112027 74 275 2.0 7.0 0.00 0.12 0.00 76
20260904111019 75 268 2.0 6.0 0.00 0.14 0.00 76
20260904110029 74 227 3.0 8.0 0.00 0.14 0.00 76
20260904105019 74 142 2.0 6.0 0.00 0.14 0.00 77
20260904104027 74 217 2.0 6.0 0.00 0.14 0.00 76
20260904103020 74 89 3.0 7.0 0.00 0.14 0.00 77
20260904102029 73 186 3.0 10.0 0.00 0.14 0.00 78
20260904101019 73 197 2.0 7.0 0.00 0.14 0.00 78
20260904100027 74 145 2.0 6.0 0.00 0.14 0.00 77
20260904095020 74 339 2.0 5.0 0.00 0.14 0.00 77
20260904094027 74 171 3.0 7.0 0.00 0.14 0.00 77
20260904093021 73 183 2.0 4.0 0.00 0.14 0.00 80
20260904092023 73 174 1.0 4.0 0.00 0.14 0.00 79
20260904091019 72 190 2.0 5.0 0.00 0.14 0.00 81
20260904090027 72 149 2.0 6.0 0.00 0.14 0.00 81
20260904085021 72 290 2.0 7.0 0.00 0.14 0.00 81
20260904084027 71 222 2.0 6.0 0.00 0.14 0.00 81
20260904083019 71 181 2.0 5.0 0.00 0.14 0.00 82
20260904082028 71 178 1.0 4.0 0.00 0.14 0.00 81
20260904081020 71 26 1.0 5.0 0.00 0.14 0.00 81
20260904080027 70 56 2.0 5.0 0.00 0.14 0.00 82
20260904075022 70 278 1.0 3.0 0.00 0.14 0.00 82
20260904074029 70 263 2.0 8.0 0.00 0.14 0.00 82
20260904073021 70 244 1.0 4.0 0.00 0.14 0.00 83
20260904072028 69 157 1.0 4.0 0.00 0.14 0.00 85
20260904071021 68 155 1.0 4.0 0.00 0.14 0.00 90
20260904070025 68 150 1.0 3.0 0.00 0.14 0.00 90
20260904065019 67 143 1.0 2.0 0.00 0.14 0.00 91
20260904064027 67 151 1.0 2.0 0.00 0.14 0.00 91
20260904063023 67 153 1.0 2.0 0.00 0.14 0.00 91
20260904062019 66 140 1.0 2.0 0.00 0.14 0.00 92
20260904061023 66 145 2.0 6.0 0.00 0.14 0.00 93
20260904060029 65 141 1.0 2.0 0.00 0.14 0.00 94
20260904055020 65 147 1.0 2.0 0.00 0.14 0.00 95
20260904054029 64 135 1.0 3.0 0.00 0.14 0.00 95
20260904053019 64 141 1.0 3.0 0.00 0.14 0.00 95
20260904052020 64 146 1.0 3.0 0.00 0.14 0.00 95
20260904051021 64 133 1.0 3.0 0.00 0.14 0.00 95
20260904050029 64 145 1.0 4.0 0.00 0.14 0.00 95
20260904045035 64 141 1.0 3.0 0.00 0.14 0.00 96
20260904044027 64 144 1.0 3.0 0.00 0.14 0.00 96
20260904043019 64 147 1.0 2.0 0.00 0.14 0.00 96
20260904042027 64 210 1.0 2.0 0.00 0.14 0.00 96
20260904041019 64 157 2.0 4.0 0.00 0.14 0.00 96
20260904040024 64 144 1.0 3.0 0.00 0.14 0.00 95
20260904035021 64 172 1.0 4.0 0.00 0.14 0.00 95
20260904034029 64 157 1.0 2.0 0.00 0.14 0.00 95
20260904033020 64 149 1.0 2.0 0.00 0.14 0.00 96
20260904032029 63 151 0.0 2.0 0.00 0.14 0.00 96
20260904031021 63 150 1.0 2.0 0.00 0.14 0.00 96
20260904030029 63 92 0.0 1.0 0.00 0.14 0.00 96
20260904025019 62 148 0.0 1.0 0.00 0.14 0.00 96
20260904024027 62 177 1.0 2.0 0.00 0.14 0.00 96
20260904023022 61 165 0.0 2.0 0.00 0.14 0.00 96
20260904022028 61 189 0.0 1.0 0.00 0.14 0.00 95
20260904021019 61 138 0.0 1.0 0.00 0.14 0.00 95
20260904020027 61 0.0 1.0 0.00 0.14 0.00 95
20260904015023 62 341 0.0 1.0 0.00 0.14 0.00 94
20260904014029 62 0.0 0.0 0.00 0.14 0.00 94
20260904013020 62 173 0.0 1.0 0.00 0.14 0.00 94
20260904012029 62 0.0 0.0 0.00 0.14 0.00 94
20260904011021 62 357 0.0 2.0 0.00 0.14 0.00 93
20260904010020 62 0.0 0.0 0.00 0.14 0.00 93
20260904005019 62 235 0.0 1.0 0.00 0.14 0.00 92
20260904004027 62 0.0 0.0 0.00 0.14 0.00 92
20260904003021 63 244 0.0 1.0 0.00 0.14 0.00 91
20260904002028 64 0.0 1.0 0.00 0.14 0.00 90
20260904001021 64 215 1.0 2.0 0.00 0.14 0.00 89
20260904000025 64 109 0.0 2.0 0.00 0.14 0.00 89
20260903235019 64 187 1.0 3.0 0.00 0.14 0.00 89
20260903234029 65 221 0.0 2.0 0.00 0.14 0.00 88
20260903233020 65 151 0.0 2.0 0.00 0.14 0.00 88
20260903232027 65 215 0.0 4.0 0.00 0.14 0.00 88
20260903231022 65 193 0.0 2.0 0.00 0.14 0.00 89
20260903230029 65 134 1.0 2.0 0.00 0.14 0.00 90
20260903225027 65 215 0.0 2.0 0.00 0.14 0.00 89
20260903224029 65 199 1.0 2.0 0.00 0.14 0.00 89
20260903223019 65 102 0.0 2.0 0.00 0.14 0.00 89
20260903222020 65 69 0.0 2.0 0.00 0.14 0.00 89
20260903221022 65 122 0.0 2.0 0.00 0.14 0.00 88
20260903220028 65 303 1.0 3.0 0.00 0.14 0.00 89
20260903215023 65 156 1.0 2.0 0.00 0.14 0.14 89
20260903214028 65 123 0.0 2.0 0.00 0.14 0.14 89
20260903213019 65 212 0.0 2.0 0.00 0.14 0.14 89
20260903212029 65 108 0.0 2.0 0.00 0.14 0.14 90
20260903211023 65 48 0.0 2.0 0.00 0.14 0.14 90
20260903210028 65 99 0.0 2.0 0.00 0.14 0.14 91
20260903205019 64 62 0.0 2.0 0.00 0.14 0.14 92
20260903204029 64 166 0.0 2.0 0.00 0.14 0.14 92
20260903203021 64 147 0.0 2.0 0.00 0.14 0.14 92
20260903202031 64 197 1.0 2.0 0.00 0.14 0.14 93
20260903201020 63 221 1.0 2.0 0.00 0.14 0.14 95
20260903200027 62 60 0.0 2.0 0.00 0.14 0.14 96
20260903195020 62 184 0.0 1.0 0.00 0.14 0.14 96
20260903194021 62 0 0.0 1.0 0.00 0.14 0.14 95
20260903193019 62 0.0 0.0 0.00 0.14 0.14 95
20260903192029 62 0.0 0.0 0.00 0.14 0.14 95
20260903191019 62 0.0 0.0 0.00 0.14 0.14 94
20260903190029 63 0.0 0.0 0.00 0.14 0.14 94
20260903185019 63 0.0 0.0 0.00 0.14 0.14 93
20260903184028 64 328 0.0 1.0 0.00 0.14 0.14 93
20260903183019 64 143 0.0 1.0 0.00 0.14 0.14 92
20260903182029 65 215 1.0 3.0 0.00 0.14 0.14 92
20260903181020 65 186 0.0 3.0 0.00 0.14 0.14 92
20260903180029 65 179 0.0 2.0 0.00 0.14 0.14 91
20260903175020 65 192 0.0 2.0 0.00 0.14 0.14 91
20260903174028 66 157 1.0 2.0 0.00 0.14 0.14 91
20260903173019 66 136 0.0 2.0 0.00 0.14 0.14 91
20260903172030 66 154 1.0 2.0 0.00 0.14 0.14 91
20260903171020 66 157 1.0 4.0 0.00 0.14 0.14 91
20260903170026 65 206 1.0 3.0 0.00 0.14 0.14 92
20260903165020 65 224 1.0 3.0 0.00 0.14 0.14 92
20260903164027 65 156 1.0 2.0 0.00 0.14 0.14 92
20260903163019 65 150 0.0 2.0 0.00 0.14 0.14 92
20260903162031 65 150 0.0 2.0 0.00 0.14 0.14 93
20260903161022 65 179 1.0 3.0 0.01 0.14 0.14 93
20260903160028 65 183 1.0 4.0 0.01 0.14 0.14 93
20260903155020 65 189 1.0 4.0 0.01 0.14 0.14 92
20260903154028 65 155 1.0 3.0 0.01 0.14 0.14 92
20260903153019 65 170 1.0 3.0 0.01 0.14 0.14 93